Weather in Yangikent

Russia / Republic of Dagestan     42°12′21″N   47°49′46″E
temp.,
°C
wind,
m/s
gust,
m/s
humid.,
%
clouds,
%
prec.,
mm/h
press.,
hPa
HPBL,
m
10 may, mon
mon1000:00+10e2298100 5.4 1012191
03:00+6ne1296100 10.3 1016259
06:00+3wnw0394100 8.1 1019362
09:00+3nw1494100 22.2 1022271
12:00+6sw128393 1.5 1022448
15:00+7se027698 1.8 1021873
18:00+6wsw228736 0.2 1022171
21:00+5wsw228777 0.2 102345
11 may, tue
tue1100:00+4wsw328272 0.0 102232
03:00+3wsw32795 0.0 102228
06:00+6sw22751 0.0 102184
09:00+10se56527 0.0 10181293
12:00+12ese555547 0.0 10171320
15:00+10ese446884 0.0 1017889
18:00+9e217851 0.0 1017363
21:00+6wsw11917 0.0 101818
12 may, wed
wed1200:00+6sw11900 0.0 101710
03:00+6w21860 0.0 101611
06:00+9nne00775 0.0 101677
09:00+13ene21650 0.0 1015603
12:00+16ene32563 0.0 1015873
15:00+16ene31591 0.0 1015677
18:00+13e11750 0.0 1016131
21:00+10wsw11860 0.0 101711
13 may, thu
thu1300:00+11wsw11770 0.0 101610
03:00+11wsw22605 0.0 101612
06:00+14sw11590 0.0 101627
09:00+18ese21520 0.0 1015443
12:00+21e33510 0.0 1015767
15:00+21e32570 0.0 1015590
18:00+17ese11740 0.0 101548
21:00+14sw11822 0.0 101611
14 may, fri
fri1400:00+15wsw22678 0.0 101512
03:00+14wsw225027 0.0 101613
06:00+17wsw224517 0.0 101629
09:00+22e22410 0.0 1015407
12:00+25e34440 0.0 1015779
15:00+24ese35460 0.0 1015871
18:00+20ese21691 0.0 101528
21:00+17wsw22750 0.0 101613